Weather History for Hurlburt Field, FL

Change the Weather History Date:

Saturday, September 8, 2012

  Actual Average Record
Temperature  
Mean Temperature 81 °F -  
Max Temperature 87 °F 85 °F 91 °F (2005)
Min Temperature 75 °F 70 °F 59 °F (2011)
Cooling Degree Days 16    
Growing Degree Days 31 (Base 50)    
Moisture  
Dew Point 77 °F    
Average Humidity 85    
Maximum Humidity 100    
Minimum Humidity 70    
Precipitation  
Precipitation 0.33 in - - ()
Sea Level Pressure  
Sea Level Pressure 29.82 in    
Wind  
Wind Speed 7 mph (SE)    
Max Wind Speed 20 mph    
Max Gust Speed 23 mph    
Visibility 9 miles    
Events Rain    
Averages and records for this station are not official NWS values.
T = Trace of Precipitation, MM = Missing Value Source: NWS Daily Summary

Daily Weather History Graph

Daily Weather History Graph

Search for Another Location

Airport:

Trip Planner

Search our weather history database for the weather conditions in past years. The results will help you decide how hot, cold, wet, or windy it might be!

Date:

Astronomy

Sep. 08, 2012 Rise Set
Actual Time 6:27 AM CDT 7:00 PM CDT
Civil Twilight 6:03 AM CDT 7:24 PM CDT
Nautical Twilight 5:34 AM CDT 7:52 PM CDT
Astronomical Twilight 5:05 AM CDT 8:21 PM CDT
Moon No Moon Rise 1:38 PM CDT (9/8)
Length of Visible Light 13h 21m
Length of Day
12h 32m
Waning Gibbous, 48% of the Moon is Illuminated
Sep 8
Waning Gibbous
Sep 15
New
Sep 22
First Quarter
Sep 29
Full
Oct 8
Last Quarter

Hourly Weather History & Observations

Time (CDT) Temp. Heat Index Dew Point Humidity Pressure Visibility Wind Dir Wind Speed Gust Speed Precip Events Conditions
12:21 AM 80.6 °F 87.1 °F 77.0 °F 89% 29.83 in 10.0 mi SSE 9.2 mph - N/A   Scattered Clouds
12:30 AM 80.6 °F 87.1 °F 77.0 °F 89% 29.83 in 10.0 mi South 9.2 mph - N/A   Mostly Cloudy
12:43 AM 80.6 °F 86.2 °F 75.2 °F 84% 29.84 in 10.0 mi SSE 9.2 mph - N/A   Scattered Clouds
12:44 AM 80.6 °F 86.2 °F 75.2 °F 84% 29.84 in 10.0 mi SSE 9.2 mph - N/A   Mostly Cloudy
12:46 AM 80.6 °F 86.2 °F 75.2 °F 84% 29.84 in 10.0 mi SSE 10.4 mph - N/A   Scattered Clouds
12:50 AM 80.6 °F 86.2 °F 75.2 °F 84% 29.84 in 10.0 mi South 10.4 mph - N/A   Mostly Cloudy
12:55 AM 81.0 °F 87.3 °F 76.1 °F 85% 29.84 in 10.0 mi SSE 10.4 mph - N/A   Mostly Cloudy
1:37 AM 80.6 °F 86.2 °F 75.2 °F 84% 29.85 in 10.0 mi South 10.4 mph - N/A   Scattered Clouds
1:39 AM 80.6 °F 86.2 °F 75.2 °F 84% 29.84 in 10.0 mi SSE 9.2 mph - N/A   Mostly Cloudy
1:41 AM 80.6 °F 86.2 °F 75.2 °F 84% 29.84 in 10.0 mi SSE 8.1 mph - N/A   Scattered Clouds
1:55 AM 80.6 °F 86.4 °F 75.7 °F 85% 29.84 in 10.0 mi South 9.2 mph - N/A   Partly Cloudy
2:33 AM 80.6 °F 86.2 °F 75.2 °F 84% 29.85 in 10.0 mi South 8.1 mph - N/A   Mostly Cloudy
2:42 AM 80.6 °F 86.2 °F 75.2 °F 84% 29.84 in 10.0 mi South 9.2 mph - N/A   Scattered Clouds
2:45 AM 80.6 °F 86.2 °F 75.2 °F 84% 29.84 in 10.0 mi SSE 9.2 mph - N/A   Mostly Cloudy
2:47 AM 80.6 °F 86.2 °F 75.2 °F 84% 29.84 in 10.0 mi SSE 9.2 mph - N/A   Scattered Clouds
2:55 AM 80.6 °F 86.4 °F 75.7 °F 85% 29.84 in 10.0 mi South 9.2 mph - N/A   Scattered Clouds
3:28 AM 80.6 °F 86.2 °F 75.2 °F 84% 29.83 in 10.0 mi South 6.9 mph - N/A   Mostly Cloudy
3:39 AM 80.6 °F 86.2 °F 75.2 °F 84% 29.83 in 10.0 mi South 4.6 mph - N/A   Mostly Cloudy
3:55 AM 79.9 °F - 75.7 °F 87% 29.83 in 10.0 mi South 3.5 mph - N/A   Scattered Clouds
4:15 AM 80.6 °F 86.2 °F 75.2 °F 84% 29.83 in 10.0 mi NNE 4.6 mph - N/A   Mostly Cloudy
4:17 AM 80.6 °F 86.2 °F 75.2 °F 84% 29.83 in 10.0 mi North 5.8 mph - N/A   Light Drizzle
4:23 AM 80.6 °F 86.2 °F 75.2 °F 84% 29.83 in 10.0 mi North 4.6 mph - N/A   Mostly Cloudy
4:36 AM 80.6 °F 86.2 °F 75.2 °F 84% 29.83 in 10.0 mi North 3.5 mph - N/A   Scattered Clouds
4:55 AM 77.5 °F - 75.7 °F 94% 29.82 in 10.0 mi Calm Calm - 0.00 in   Partly Cloudy
5:55 AM 76.8 °F - 75.7 °F 96% 29.83 in 10.0 mi North 3.5 mph - N/A   Scattered Clouds
6:07 AM 77.0 °F - 75.2 °F 94% 29.84 in 10.0 mi NNW 3.5 mph - N/A   Mostly Cloudy
6:32 AM 75.2 °F - 75.2 °F 100% 29.84 in 10.0 mi North 4.6 mph - N/A   Mostly Cloudy
6:55 AM 76.1 °F - 75.6 °F 98% 29.84 in 10.0 mi Calm Calm - 0.00 in   Light Drizzle
7:05 AM 77.0 °F - 75.2 °F 94% 29.84 in 10.0 mi NNE 4.6 mph - N/A   Mostly Cloudy
7:14 AM 77.0 °F - 75.2 °F 94% 29.85 in 10.0 mi Calm Calm - N/A   Light Drizzle
7:20 AM 77.0 °F - 75.2 °F 94% 29.85 in 3.0 mi South 6.9 mph - N/A Rain Heavy Rain
7:21 AM 77.0 °F - 75.2 °F 94% 29.85 in 2.5 mi South 6.9 mph - N/A Rain Heavy Rain
7:23 AM 77.0 °F - 75.2 °F 94% 29.86 in 1.8 mi SSE 4.6 mph - N/A Rain Heavy Rain
7:31 AM 77.0 °F - 75.2 °F 94% 29.85 in 1.5 mi Calm Calm - N/A Rain Heavy Rain
7:33 AM 77.0 °F - 75.2 °F 94% 29.85 in 1.8 mi ENE 3.5 mph - N/A Rain Rain
7:34 AM 77.0 °F - 75.2 °F 94% 29.85 in 2.0 mi NNE 3.5 mph - N/A Rain Rain
7:36 AM 77.0 °F - 75.2 °F 94% 29.86 in 3.0 mi Variable 3.5 mph - N/A Rain Rain
7:42 AM 77.0 °F - 75.2 °F 94% 29.86 in 7.0 mi NW 5.8 mph - N/A Rain Light Rain
7:43 AM 77.0 °F - 75.2 °F 94% 29.86 in 8.0 mi NW 5.8 mph - N/A Rain Light Rain
7:47 AM 77.0 °F - 75.2 °F 94% 29.86 in 10.0 mi NW 6.9 mph - N/A Rain Light Rain
7:51 AM 77.0 °F - 75.2 °F 94% 29.86 in 7.0 mi NNW 4.6 mph - N/A Rain Rain
7:55 AM 77.0 °F - 76.1 °F 97% 29.85 in 5.0 mi North 3.5 mph - 0.24 in Rain Rain
7:57 AM 77.0 °F - 77.0 °F 100% 29.85 in 5.0 mi North 3.5 mph - N/A Rain Rain
8:05 AM 77.0 °F - 77.0 °F 100% 29.86 in 9.0 mi North 6.9 mph - N/A Rain Light Rain
8:23 AM 78.8 °F - 77.0 °F 94% 29.85 in 10.0 mi North 8.1 mph - N/A   Light Drizzle
8:43 AM 78.8 °F - 77.0 °F 94% 29.85 in 10.0 mi North 8.1 mph - N/A   Partly Cloudy
8:55 AM 79.7 °F - 76.8 °F 91% 29.85 in 10.0 mi North 6.9 mph - 0.01 in   Partly Cloudy
9:44 AM 82.4 °F 90.9 °F 77.0 °F 84% 29.85 in 10.0 mi Variable 6.9 mph - N/A   Light Drizzle
9:51 AM 84.2 °F 94.1 °F 77.0 °F 79% 29.86 in 10.0 mi East 8.1 mph - N/A   Scattered Clouds
9:55 AM 83.8 °F 93.2 °F 76.8 °F 79% 29.85 in 10.0 mi East 5.8 mph - 0.00 in   Mostly Cloudy
10:23 AM 86.0 °F 96.9 °F 77.0 °F 74% 29.85 in 10.0 mi ESE 5.8 mph - N/A   Light Drizzle
10:32 AM 86.0 °F 96.9 °F 77.0 °F 74% 29.85 in 10.0 mi ESE 5.8 mph - N/A   Mostly Cloudy
10:39 AM 84.2 °F 94.1 °F 77.0 °F 79% 29.84 in 10.0 mi NE 3.5 mph - N/A   Scattered Clouds
10:40 AM 84.2 °F 94.1 °F 77.0 °F 79% 29.84 in 10.0 mi NE 4.6 mph - N/A   Mostly Cloudy
10:47 AM 84.2 °F 94.1 °F 77.0 °F 79% 29.84 in 10.0 mi East 8.1 mph - N/A   Mostly Cloudy
10:55 AM 85.3 °F 96.3 °F 77.2 °F 77% 29.83 in 10.0 mi NE 5.8 mph - 0.00 in   Mostly Cloudy
11:10 AM 84.2 °F 94.1 °F 77.0 °F 79% 29.83 in 10.0 mi Variable 4.6 mph - N/A Rain Light Rain
11:20 AM 84.2 °F 94.1 °F 77.0 °F 79% 29.83 in 10.0 mi ENE 8.1 mph - N/A   Mostly Cloudy
11:24 AM 86.0 °F 96.9 °F 77.0 °F 74% 29.83 in 10.0 mi ESE 5.8 mph - N/A   Light Drizzle
11:29 AM 86.0 °F 96.9 °F 77.0 °F 74% 29.83 in 10.0 mi East 6.9 mph - N/A   Light Drizzle
11:34 AM 86.0 °F 96.9 °F 77.0 °F 74% 29.83 in 10.0 mi East 6.9 mph - N/A   Mostly Cloudy
11:55 AM 87.8 °F 99.7 °F 77.0 °F 70% 29.82 in 10.0 mi NW 3.5 mph - N/A   Mostly Cloudy
12:12 PM 86.0 °F 96.9 °F 77.0 °F 74% 29.83 in 6.0 mi Variable 1.2 mph - N/A Rain Light Rain
12:37 PM 82.4 °F 92.4 °F 78.8 °F 89% 29.83 in 7.0 mi South 6.9 mph - N/A   Mostly Cloudy
12:59 PM 84.2 °F 96.1 °F 78.8 °F 84% 29.81 in 10.0 mi SSE 4.6 mph - N/A   Mostly Cloudy
1:42 PM 84.2 °F 96.1 °F 78.8 °F 84% 29.80 in 10.0 mi WSW 9.2 mph - N/A Rain Light Rain
1:49 PM 84.2 °F 96.1 °F 78.8 °F 84% 29.80 in 10.0 mi West 9.2 mph - N/A Rain Light Rain
1:55 PM 82.9 °F 94.1 °F 79.5 °F 89% 29.80 in 10.0 mi Variable 3.5 mph - 0.00 in Rain Light Rain
2:10 PM 82.4 °F 92.4 °F 78.8 °F 89% 29.78 in 8.0 mi ENE 4.6 mph - N/A Rain Light Rain
2:17 PM 82.4 °F 90.9 °F 77.0 °F 84% 29.78 in 10.0 mi East 4.6 mph - N/A   Scattered Clouds
2:20 PM 82.4 °F 90.9 °F 77.0 °F 84% 29.77 in 10.0 mi Calm Calm - N/A   Light Drizzle
2:24 PM 84.2 °F 94.1 °F 77.0 °F 79% 29.77 in 10.0 mi Calm Calm - N/A   Scattered Clouds
2:26 PM 84.2 °F 94.1 °F 77.0 °F 79% 29.77 in 10.0 mi Calm Calm - N/A   Light Drizzle
2:41 PM 84.2 °F 96.1 °F 78.8 °F 84% 29.78 in 10.0 mi South 4.6 mph - N/A   Scattered Clouds
2:49 PM 86.0 °F 99.3 °F 78.8 °F 79% 29.77 in 10.0 mi SW 5.8 mph - N/A   Mostly Cloudy
2:55 PM 86.0 °F 99.3 °F 78.8 °F 79% 29.77 in 10.0 mi Variable 5.8 mph - 0.03 in   Mostly Cloudy
2:57 PM 86.0 °F 99.3 °F 78.8 °F 79% 29.77 in 10.0 mi SSW 6.9 mph - N/A   Scattered Clouds
3:19 PM 86.0 °F 99.3 °F 78.8 °F 79% 29.76 in 10.0 mi SSE 6.9 mph - N/A   Light Drizzle
3:28 PM 86.0 °F 99.3 °F 78.8 °F 79% 29.75 in 10.0 mi SSW 4.6 mph - N/A   Scattered Clouds
3:29 PM 86.0 °F 99.3 °F 78.8 °F 79% 29.75 in 10.0 mi Variable 5.8 mph - N/A   Mostly Cloudy
3:34 PM 86.0 °F 99.3 °F 78.8 °F 79% 29.75 in 10.0 mi Variable 5.8 mph - N/A   Mostly Cloudy
3:41 PM 86.0 °F 99.3 °F 78.8 °F 79% 29.76 in 10.0 mi South 8.1 mph - N/A   Light Drizzle
3:44 PM 84.2 °F 96.1 °F 78.8 °F 84% 29.76 in 10.0 mi South 8.1 mph - N/A   Light Drizzle
3:48 PM 84.2 °F 96.1 °F 78.8 °F 84% 29.76 in 10.0 mi South 8.1 mph - N/A   Mostly Cloudy
3:51 PM 84.2 °F 96.1 °F 78.8 °F 84% 29.76 in 10.0 mi South 8.1 mph - N/A   Mostly Cloudy
3:53 PM 84.2 °F 96.1 °F 78.8 °F 84% 29.76 in 10.0 mi South 8.1 mph - N/A   Mostly Cloudy
3:54 PM 86.0 °F 99.3 °F 78.8 °F 79% 29.76 in 10.0 mi South 8.1 mph - N/A   Mostly Cloudy
3:55 PM 85.1 °F 97.1 °F 78.3 °F 80% 29.76 in 10.0 mi South 9.2 mph - 0.00 in   Mostly Cloudy
4:35 PM 86.0 °F 99.3 °F 78.8 °F 79% 29.77 in 10.0 mi WSW 9.2 mph - N/A   Mostly Cloudy
4:43 PM 86.0 °F 99.3 °F 78.8 °F 79% 29.77 in 10.0 mi WSW 9.2 mph - N/A   Mostly Cloudy
4:55 PM 84.7 °F 96.5 °F 78.4 °F 81% 29.77 in 10.0 mi WSW 8.1 mph - N/A   Partly Cloudy
5:55 PM 84.9 °F 96.6 °F 78.1 °F 80% 29.78 in 10.0 mi WSW 6.9 mph - N/A   Clear
6:07 PM 84.2 °F 96.1 °F 78.8 °F 84% 29.78 in 10.0 mi SW 9.2 mph - N/A   Mostly Cloudy
6:35 PM 84.2 °F 96.1 °F 78.8 °F 84% 29.78 in 10.0 mi West 11.5 mph - N/A   Mostly Cloudy
6:55 PM 83.5 °F 94.7 °F 79.0 °F 86% 29.78 in 10.0 mi SW 6.9 mph - N/A   Mostly Cloudy
7:09 PM 82.4 °F 90.9 °F 77.0 °F 84% 29.80 in 10.0 mi North 19.6 mph 23.0 mph N/A Rain Light Rain
7:13 PM 82.4 °F 90.9 °F 77.0 °F 84% 29.80 in 5.0 mi NNW 11.5 mph 23.0 mph N/A Rain Heavy Rain
7:31 PM 78.8 °F - 77.0 °F 94% 29.80 in 10.0 mi NE 8.1 mph - N/A   Mostly Cloudy
7:34 PM 78.8 °F - 77.0 °F 94% 29.80 in 10.0 mi NNE 11.5 mph - N/A   Scattered Clouds
7:55 PM 78.8 °F - 73.8 °F 84% 29.80 in 10.0 mi NNE 13.8 mph - 0.05 in   Mostly Cloudy
8:55 PM 77.7 °F - 75.0 °F 91% 29.85 in 10.0 mi NNE 5.8 mph - N/A   Mostly Cloudy
9:55 PM 77.4 °F - 73.0 °F 86% 29.87 in 10.0 mi NNE 5.8 mph - N/A   Overcast
10:55 PM 76.6 °F - 72.3 °F 86% 29.87 in 10.0 mi North 6.9 mph - N/A   Partly Cloudy
11:55 PM 77.0 °F - 72.1 °F 85% 29.86 in 10.0 mi North 9.2 mph - N/A   Clear